[[{"header":{"parameterUnit":"m.s-1","parameterCategory":1,"la1":30.2991,"la2":30.254,"lo1":-89.0895,"lo2":-89.0444,"dy":0.0017,"dx":0.0017,"nx":28,"ny":28,"refTime":"2024-08-31T21:00:00:Z","depth":0,"parameterNumber":2,"parameterNumberName":"U-component_of_WINDS"},"data":[0,0,0,0,0,0,0,0,0,0,0,0,0,0,0,0,0,0,0,0,0,0,0,0,0,0,0,0,0,0,0,0,0,0,0,0,0,0,0,0,0,0,0,0,0,0,0,0,0,0,0,0,0,0,0,0,0,0,-4.4139,-4.4139,0,-4.4142,-4.4142,-4.4142,-4.4085,-4.4084,-4.4082,-4.4081,-4.4084,-4.4085,-4.4087,0,0,0,0,0,0,0,0,0,0,0,0,0,-4.4085,-4.4087,-4.4139,-4.4139,-4.4139,-4.4142,-4.4142,-4.4142,-4.4086,-4.4084,-4.4082,-4.408,-4.4083,-4.4085,-4.4087,0,0,0,0,0,0,0,0,0,0,0,0,0,-4.4101,-4.4087,-4.4139,-4.4112,-4.4109,-4.4142,-4.4142,-4.4142,-4.4086,-4.4084,-4.4081,-4.4079,-4.4083,-4.4085,-4.4087,-4.4146,0,0,-4.4094,-4.4095,0,0,0,0,0,0,0,0,-4.41,-4.4103,-4.4116,-4.4113,-4.4111,-4.4111,-4.4124,-4.4143,-4.4087,-4.4095,-4.4081,-4.4078,-4.4095,-4.4096,-4.4101,-4.4147,-4.4147,-4.4094,-4.4095,-4.4096,-4.4097,0,0,0,0,0,0,0,-4.4099,-4.4102,-4.414,-4.4116,-4.4113,-4.4099,-4.4099,-4.4127,-4.4107,-4.4094,-4.409,-4.4091,-4.4093,-4.4099,-4.4101,-4.4147,-4.4094,-4.4096,-4.4097,-4.4098,-4.4239,-4.4241,0,0,0,0,0,0,-4.4102,-4.4102,-4.414,-4.414,-4.41,-4.4102,-4.4101,-4.4113,-4.4107,-4.4104,-4.4093,-4.4088,-4.4097,-4.4098,-4.4101,-4.4168,-4.4096,-4.4098,-4.41,-4.4237,-4.424,-4.4242,0,0,0,0,0,0,-4.4101,-4.4105,-4.414,-4.412,-4.4123,-4.4105,-4.4119,-4.4114,-4.412,-4.4106,-4.4102,-4.4103,-4.4095,-4.4098,-4.4135,-4.4167,-4.41,-4.4102,-4.4234,-4.4238,-4.4241,-4.4303,0,0,0,0,0,0,-4.4099,-4.4105,-4.4128,-4.4121,-4.4124,-4.4174,-4.4121,-4.4116,-4.4125,-4.4119,-4.4115,-4.4112,-4.4093,-4.4132,-4.4137,-4.4169,-4.4103,-4.4231,-4.4235,-4.424,-4.4298,-4.4308,-4.4317,0,0,0,0,0,-4.4098,-4.4146,-4.4129,-4.4134,-4.4152,-4.4176,-4.4178,-4.4156,-4.4127,-4.4149,-4.414,-4.4112,-4.4164,-4.4136,-4.4142,-4.4174,-4.4229,-4.4234,-4.4239,-4.4294,-4.4306,-4.4317,0,0,0,0,0,0,-4.4157,-4.4144,-4.4126,-4.4173,-4.4176,-4.4167,-4.4193,-4.417,-4.4182,-4.4175,-4.4148,-4.4147,-4.4189,-4.4186,-4.4156,-4.4231,-4.4191,-4.4198,-4.423,-4.4242,-4.4252,-4.425,-4.4105,0,0,0,0,0,-4.4176,-4.4196,-4.4184,-4.4227,-4.423,-4.4212,-4.4221,-4.4204,-4.4206,-4.4207,-4.42,-4.4204,-4.422,-4.4232,-4.4247,-4.4299,-4.4296,-4.4324,-4.4334,-4.4342,-4.4347,-4.4372,-4.4384,-4.426,-4.426,-4.426,0,0,-4.4214,-4.421,-4.4225,-4.4239,-4.4239,-4.4261,-4.4213,-4.4238,-4.4253,-4.4211,-4.4244,-4.4241,-4.4242,-4.4287,-4.4306,-4.4286,-4.4381,-4.4349,-4.4355,-4.4356,-4.4379,-4.4391,-4.4401,-4.4264,-4.4263,-4.4262,0,0,-4.4294,-4.4294,-4.4329,-4.433,-4.4331,-4.4319,-4.4327,-4.4322,-4.4317,-4.4351,-4.4319,-4.4337,-4.4367,-4.4369,-4.4374,-4.4456,-4.4429,-4.4462,-4.4511,-4.4536,-4.4545,-4.4554,-4.458,-4.4591,-4.4468,-4.4468,-4.4468,0,-4.4342,-4.4373,-4.435,-4.4376,-4.4383,-4.4346,-4.438,-4.4383,-4.4389,-4.4394,-4.4372,-4.4407,-4.4406,-4.445,-4.447,-4.4476,-4.4484,-4.446,-4.4546,-4.4554,-4.4562,-4.4587,-4.4597,-4.4472,-4.4471,-4.4471,-4.447,0,-4.443,-4.4452,-4.448,-4.4485,-4.4496,-4.4527,-4.4508,-4.4521,-4.4504,-4.4494,-4.4528,-4.4526,-4.4538,-4.4548,-4.4532,-4.4589,-4.4576,-4.4551,-4.4509,-4.4578,-4.46,-4.461,-4.4477,-4.4476,-4.4474,-4.4474,0,0,-4.4545,-4.4538,-4.4548,-4.455,-4.4549,-4.4565,-4.4594,-4.4606,-4.4617,-4.4624,-4.4646,-4.4673,-4.4648,-4.4654,-4.4638,-4.4661,-4.4723,-4.4632,-4.4631,-4.4646,-4.4783,-4.48,-4.4812,-4.4707,-4.4709,-4.471,-4.4782,0,-4.462,-4.4668,-4.4648,-4.4698,-4.4717,-4.4683,-4.4708,-4.471,-4.4702,-4.4717,-4.4709,-4.4727,-4.4695,-4.4698,-4.4719,-4.4711,-4.4749,-4.4706,-4.4726,-4.4727,-4.4722,-4.4824,-4.4842,-4.491,-4.4791,-4.4793,-4.4794,0,-4.4714,-4.4723,-4.4774,-4.4768,-4.4776,-4.4798,-4.4807,-4.4823,-4.4825,-4.4817,-4.4824,-4.4803,-4.483,-4.4792,-4.4829,-4.48,-4.4808,-4.4805,-4.4807,-4.4805,-4.4762,-4.4822,-4.4931,-4.494,-4.4808,-4.4807,-4.4806,0,-4.4789,-4.4814,-4.4847,-4.485,-4.4845,-4.4862,-4.4861,-4.486,-4.4868,-4.4877,-4.4882,-4.4894,-4.49,-4.491,-4.4893,-4.4867,-4.4932,-4.4893,-4.4925,-4.4925,-4.4937,-4.4936,-4.5046,-4.4948,-4.4948,-4.4948,-4.4948,0,-4.4873,-4.4905,-4.488,-4.4901,-4.4935,-4.4913,-4.4948,-4.4943,-4.4943,-4.4962,-4.4935,-4.4953,-4.493,-4.4946,-4.4933,-4.4964,-4.4968,-4.4962,-4.4957,-4.4962,-4.4963,-4.4964,-4.4958,-4.4951,-4.495,-4.4949,-4.4949,0,-4.4961,-4.4946,-4.498,-4.4972,-4.4971,-4.4997,-4.4991,-4.5009,-4.5,-4.5023,-4.5028,-4.5014,-4.5031,-4.5015,-4.5032,-4.5023,-4.5064,-4.5055,-4.5063,-4.5059,-4.5091,-4.5087,-4.5203,-4.5216,-4.5114,-4.5115,-4.5116,0,-4.5013,-4.5037,-4.5032,-4.5042,-4.5042,-4.506,-4.5068,-4.5048,-4.5057,-4.5061,-4.5078,-4.5094,-4.5104,-4.5133,-4.5124,-4.5137,-4.5125,-4.5165,-4.5127,-4.5131,-4.5122,-4.5119,-4.5121,-4.5172,-4.5173,-4.5174,-4.5175,0,-4.5108,-4.5099,-4.5112,-4.5122,-4.5132,-4.514,-4.5145,-4.5155,-4.5134,-4.5147,-4.5163,-4.5172,-4.5189,-4.5203,-4.5213,-4.5212,-4.5189,-4.5188,-4.5195,-4.5199,-4.5201,-4.5197,-4.5081,-4.5184,-4.5183,-4.5183,-4.5182,-4.5182,-4.5177,-4.5196,-4.5195,-4.521,-4.5211,-4.5217,-4.5233,-4.5226,-4.524,-4.5251,-4.5239,-4.5259,-4.526,-4.5271,-4.5273,-4.5288,-4.5271,-4.5283,-4.5286,-4.5288,-4.5291,-4.5202,-4.5291,-4.529,-4.529,-4.529,-4.529,0,-4.5267,-4.5265,-4.5279,-4.5286,-4.5298,-4.5277,-4.5282,-4.5293,-4.5311,-4.5314,-4.5324,-4.5343,-4.5358,-4.5351,-4.5363,-4.5376,-4.5366,-4.538,-4.5377,-4.5377,-4.5307,-4.5297,-4.5388,-4.5388,-4.5388,-4.5388,-4.5388,-4.5388,-4.5315,-4.5344,-4.5336,-4.5366,-4.5364,-4.5383,-4.5387,-4.5392,-4.5394,-4.5416,-4.5427,-4.5423,-4.5421,-4.5433,-4.5445,-4.5443,-4.5447,-4.5464,-4.5458,-4.5392,-4.5382,-4.5372,-4.5363,-4.5466,-4.5466,-4.5525,-4.5526,-4.5526]},{"header":{"parameterUnit":"m.s-1","parameterCategory":1,"la1":30.2991,"la2":30.254,"lo1":-89.0895,"lo2":-89.0444,"dy":0.0017,"dx":0.0017,"nx":28,"ny":28,"refTime":"2024-08-31T21:00:00:Z","depth":0,"parameterNumber":3,"parameterNumberName":"V-component_of_WINDS"},"data":[0,0,0,0,0,0,0,0,0,0,0,0,0,0,0,0,0,0,0,0,0,0,0,0,0,0,0,0,0,0,0,0,0,0,0,0,0,0,0,0,0,0,0,0,0,0,0,0,0,0,0,0,0,0,0,0,0,0,-0.5217,-0.5216,0,-0.5125,-0.5123,-0.5122,-0.5035,-0.5034,-0.5033,-0.5032,-0.4933,-0.4932,-0.493,0,0,0,0,0,0,0,0,0,0,0,0,0,-0.5313,-0.5312,-0.5217,-0.5216,-0.5215,-0.5125,-0.5123,-0.5122,-0.5035,-0.5034,-0.5032,-0.5031,-0.4934,-0.4932,-0.493,0,0,0,0,0,0,0,0,0,0,0,0,0,-0.5251,-0.5311,-0.5217,-0.516,-0.5154,-0.5125,-0.5123,-0.5122,-0.5035,-0.5034,-0.5032,-0.503,-0.4934,-0.4932,-0.493,-0.4948,0,0,-0.4922,-0.4921,0,0,0,0,0,0,0,0,-0.5255,-0.5248,-0.517,-0.5164,-0.5157,-0.509,-0.5121,-0.5063,-0.5036,-0.508,-0.5032,-0.503,-0.4986,-0.498,-0.4966,-0.4943,-0.4939,-0.4922,-0.4921,-0.492,-0.4919,0,0,0,0,0,0,0,-0.5259,-0.5251,-0.518,-0.5169,-0.5161,-0.5138,-0.5127,-0.511,-0.5044,-0.5076,-0.507,-0.506,-0.4983,-0.4968,-0.4963,-0.4938,-0.4922,-0.492,-0.4919,-0.4918,-0.4923,-0.4924,0,0,0,0,0,0,-0.5273,-0.5255,-0.5183,-0.5177,-0.5203,-0.5138,-0.5126,-0.5113,-0.5044,-0.5031,-0.5062,-0.5057,-0.4973,-0.4966,-0.4959,-0.4974,-0.492,-0.4918,-0.4916,-0.4921,-0.4923,-0.4925,0,0,0,0,0,0,-0.5275,-0.5267,-0.5187,-0.5215,-0.5203,-0.5138,-0.5124,-0.5112,-0.5098,-0.5033,-0.502,-0.506,-0.4972,-0.4962,-0.4951,-0.497,-0.4916,-0.4914,-0.492,-0.4922,-0.4924,-0.5006,0,0,0,0,0,0,-0.5278,-0.5269,-0.5276,-0.5215,-0.5201,-0.5182,-0.5125,-0.5111,-0.5094,-0.5086,-0.5027,-0.5016,-0.497,-0.4955,-0.4949,-0.4965,-0.4912,-0.4918,-0.4921,-0.4923,-0.5001,-0.5011,-0.5019,0,0,0,0,0,-0.5282,-0.5302,-0.5277,-0.5268,-0.521,-0.5183,-0.5175,-0.5123,-0.5096,-0.5102,-0.506,-0.5018,-0.4969,-0.4955,-0.4947,-0.4963,-0.4916,-0.492,-0.4923,-0.4997,-0.5009,-0.5019,0,0,0,0,0,0,-0.5365,-0.5293,-0.5264,-0.5266,-0.5232,-0.5169,-0.5175,-0.5137,-0.5109,-0.5103,-0.5038,-0.5025,-0.5021,-0.499,-0.4976,-0.4976,-0.4936,-0.4939,-0.4996,-0.5006,-0.5015,-0.5022,-0.491,0,0,0,0,0,-0.5384,-0.5371,-0.5308,-0.5315,-0.5299,-0.524,-0.5227,-0.519,-0.5151,-0.5136,-0.5093,-0.5056,-0.5032,-0.5017,-0.4992,-0.4997,-0.4981,-0.5004,-0.5013,-0.502,-0.5022,-0.5021,-0.5029,-0.4937,-0.4937,-0.4936,0,0,-0.5422,-0.5381,-0.5376,-0.5331,-0.53,-0.5285,-0.5229,-0.5216,-0.5204,-0.5133,-0.512,-0.5087,-0.5041,-0.5038,-0.5034,-0.5013,-0.5045,-0.5025,-0.5031,-0.5029,-0.5025,-0.5034,-0.5042,-0.4939,-0.4939,-0.4938,0,0,-0.5485,-0.5453,-0.5455,-0.5425,-0.5379,-0.534,-0.5341,-0.5283,-0.5259,-0.5245,-0.5191,-0.5175,-0.5136,-0.5105,-0.5084,-0.5134,-0.5093,-0.5127,-0.5173,-0.5172,-0.5179,-0.5185,-0.5202,-0.5208,-0.513,-0.513,-0.513,0,-0.5538,-0.5515,-0.546,-0.5451,-0.5431,-0.5368,-0.5368,-0.5341,-0.5289,-0.5277,-0.5254,-0.5202,-0.5167,-0.5154,-0.5167,-0.5152,-0.5149,-0.5133,-0.5183,-0.5189,-0.5193,-0.5208,-0.5214,-0.5134,-0.5134,-0.5133,-0.5133,0,-0.5582,-0.5567,-0.5574,-0.5526,-0.5507,-0.5503,-0.5446,-0.5433,-0.5397,-0.536,-0.5345,-0.5301,-0.5264,-0.5259,-0.5223,-0.5241,-0.5229,-0.5196,-0.5154,-0.5208,-0.522,-0.5225,-0.514,-0.5139,-0.5138,-0.5137,0,0,-0.5694,-0.5616,-0.5619,-0.5596,-0.554,-0.5527,-0.5519,-0.5484,-0.5474,-0.544,-0.543,-0.5398,-0.5367,-0.5343,-0.5303,-0.5303,-0.5343,-0.5269,-0.5267,-0.5283,-0.5357,-0.5382,-0.539,-0.5316,-0.5317,-0.5318,-0.5361,0,-0.5745,-0.5729,-0.5679,-0.5676,-0.5661,-0.56,-0.5592,-0.5557,-0.5521,-0.5501,-0.5461,-0.5439,-0.54,-0.5385,-0.5382,-0.5339,-0.5357,-0.5335,-0.5304,-0.5304,-0.5317,-0.5396,-0.5422,-0.5465,-0.5365,-0.5366,-0.5367,0,-0.5804,-0.5774,-0.5771,-0.5715,-0.5707,-0.5702,-0.5665,-0.5648,-0.5605,-0.5579,-0.5553,-0.5509,-0.5495,-0.5458,-0.5436,-0.5423,-0.5407,-0.5384,-0.5384,-0.5378,-0.5338,-0.5391,-0.5478,-0.5484,-0.5374,-0.5374,-0.5373,0,-0.5884,-0.5844,-0.5836,-0.5818,-0.5754,-0.5751,-0.5723,-0.5679,-0.5661,-0.5629,-0.5616,-0.5583,-0.5564,-0.5538,-0.5485,-0.5463,-0.5469,-0.5428,-0.5445,-0.5446,-0.5448,-0.5449,-0.5532,-0.5441,-0.544,-0.544,-0.544,0,-0.5946,-0.5946,-0.5871,-0.5867,-0.5864,-0.5806,-0.5804,-0.5771,-0.5732,-0.5718,-0.5663,-0.5651,-0.5583,-0.5562,-0.552,-0.5508,-0.55,-0.5477,-0.5466,-0.5481,-0.5484,-0.5469,-0.5464,-0.5442,-0.5442,-0.5441,-0.5441,0,-0.6035,-0.5985,-0.5973,-0.5913,-0.5897,-0.5898,-0.5845,-0.5837,-0.5799,-0.5782,-0.5774,-0.5713,-0.5685,-0.563,-0.5588,-0.556,-0.5556,-0.5537,-0.5571,-0.5564,-0.5584,-0.5582,-0.566,-0.5666,-0.5572,-0.5573,-0.5574,0,-0.6078,-0.6076,-0.6016,-0.6004,-0.5979,-0.5959,-0.5941,-0.5883,-0.5866,-0.5817,-0.5814,-0.5783,-0.5755,-0.5714,-0.5664,-0.563,-0.5609,-0.5639,-0.5604,-0.5619,-0.5608,-0.5608,-0.5606,-0.5646,-0.5648,-0.5649,-0.565,0,-0.6158,-0.6133,-0.611,-0.6078,-0.6057,-0.6029,-0.5997,-0.5989,-0.5924,-0.5907,-0.5879,-0.5857,-0.5814,-0.5783,-0.5742,-0.5711,-0.5669,-0.5661,-0.5663,-0.5678,-0.5698,-0.5686,-0.5591,-0.5659,-0.5658,-0.5658,-0.5657,-0.5657,-0.6224,-0.6219,-0.6176,-0.6151,-0.6122,-0.6093,-0.6082,-0.6043,-0.6019,-0.598,-0.5947,-0.5922,-0.5877,-0.5818,-0.579,-0.5767,-0.5747,-0.575,-0.5751,-0.5752,-0.5758,-0.5702,-0.576,-0.576,-0.5759,-0.5759,-0.5759,0,-0.63,-0.6269,-0.6247,-0.6205,-0.6185,-0.6149,-0.6111,-0.6097,-0.6076,-0.6039,-0.6012,-0.5979,-0.5948,-0.5896,-0.5861,-0.5853,-0.5832,-0.5845,-0.5844,-0.5837,-0.5779,-0.578,-0.5862,-0.5862,-0.5862,-0.5862,-0.5862,-0.5862,-0.6337,-0.6327,-0.6297,-0.6271,-0.624,-0.6216,-0.6197,-0.617,-0.614,-0.6106,-0.6081,-0.6048,-0.6004,-0.5964,-0.5934,-0.5919,-0.5907,-0.5926,-0.5905,-0.5852,-0.5842,-0.5833,-0.5833,-0.5925,-0.5925,-0.5965,-0.5966,-0.5966]}]]